When you browse on this site, cookies collect data to enhance your experience and personalize the content and advertising you see.
Visit our Privacy Policy to learn more. By continuing to use the site, you agree to this use of cookies and data.
  • în România
  • Lista ţărilor
  • Pe 7 zile
  • Temperatura apei
  • Hartă satelitară
  • Meteo pe hartă
  • Widget-uri
  • user-avatar
    Intrare

    Meteo pe oră la Iskra

    Astăzi, 26 Aprilie, Vineri

    Timp Temperatura Precipitaţii Vânt Presiune Umiditate
    00:00 +9°C° 0 mm 2 m/s 749 mmHg 71%
    01:00 +8°C° 0 mm 2 m/s 749 mmHg 73%
    02:00 +8°C° 0 mm 1 m/s 749 mmHg 77%
    03:00 +8°C° 0 mm 1 m/s 749 mmHg 78%
    04:00 +7°C° 0 mm 2 m/s 749 mmHg 79%
    05:00 +7°C° 0 mm 2 m/s 749 mmHg 79%
    06:00 +9°C° 0 mm 2 m/s 749 mmHg 72%
    07:00 +10°C° 0 mm 2 m/s 749 mmHg 66%
    08:00 +13°C° 0 mm 2 m/s 749 mmHg 58%
    09:00 +14°C° 0 mm 2 m/s 749 mmHg 53%
    10:00 +16°C° 0 mm 2 m/s 749 mmHg 48%
    11:00 +17°C° 0 mm 2 m/s 749 mmHg 43%
    12:00 +18°C° 0 mm 2 m/s 748 mmHg 41%
    13:00 +20°C° 0 mm 1 m/s 748 mmHg 39%
    14:00 +20°C° 0 mm 1 m/s 748 mmHg 38%
    15:00 +20°C° 0 mm 1 m/s 747 mmHg 40%
    16:00 +20°C° 0 mm 1 m/s 747 mmHg 42%
    17:00 +19°C° 0 mm 1 m/s 746 mmHg 43%
    18:00 +16°C° 0 mm 2 m/s 746 mmHg 50%
    19:00 +14°C° 0 mm 2 m/s 746 mmHg 56%
    20:00 +12°C° 0 mm 2 m/s 745 mmHg 62%
    21:00 +10°C° 0 mm 2 m/s 745 mmHg 63%
    22:00 +10°C° 0 mm 2 m/s 745 mmHg 64%
    23:00 +9°C° 0 mm 2 m/s 745 mmHg 64%

    Mâine, 27 Aprilie, Sâmbătă

    Timp Temperatura Precipitaţii Vânt Presiune Umiditate
    00:00 +9°C° 0 mm 2 m/s 744 mmHg 68%
    01:00 +9°C° 0 mm 2 m/s 744 mmHg 72%
    02:00 +9°C° 0 mm 1 m/s 743 mmHg 76%
    03:00 +9°C° 0 mm 1 m/s 743 mmHg 79%
    04:00 +10°C° 0 mm 1 m/s 742 mmHg 82%
    05:00 +10°C° 0 mm 1 m/s 742 mmHg 84%
    06:00 +13°C° 0 mm 1 m/s 742 mmHg 74%
    07:00 +15°C° 0 mm 1 m/s 742 mmHg 64%
    08:00 +19°C° 0 mm 1 m/s 741 mmHg 54%
    09:00 +19°C° 0 mm 2 m/s 741 mmHg 46%
    10:00 +20°C° 0 mm 2 m/s 741 mmHg 39%
    11:00 +22°C° 0 mm 3 m/s 740 mmHg 32%
    12:00 +21°C° 0 mm 3 m/s 740 mmHg 33%
    13:00 +21°C° 0 mm 3 m/s 739 mmHg 34%
    14:00 +21°C° 0 mm 3 m/s 739 mmHg 35%
    15:00 +20°C° 0.1 mm 3 m/s 739 mmHg 42%
    16:00 +18°C° 0.1 mm 3 m/s 739 mmHg 49%
    17:00 +17°C° 0.1 mm 4 m/s 739 mmHg 56%
    18:00 +14°C° 0.5 mm 4 m/s 739 mmHg 64%
    19:00 +12°C° 0.5 mm 3 m/s 740 mmHg 73%
    20:00 +10°C° 0.5 mm 3 m/s 740 mmHg 82%
    21:00 +8°C° 0 mm 4 m/s 741 mmHg 80%
    22:00 +6°C° 0 mm 4 m/s 741 mmHg 78%
    23:00 +5°C° 0 mm 5 m/s 742 mmHg 76%

    Poimâine, 28 Aprilie, Duminică

    Timp Temperatura Precipitaţii Vânt Presiune Umiditate
    00:00 +2°C° 0 mm 5 m/s 743 mmHg 75%
    01:00 +1°C° 0 mm 5 m/s 743 mmHg 74%
    02:00 0°C° 0 mm 4 m/s 744 mmHg 73%
    03:00 -1°C° 0 mm 4 m/s 744 mmHg 70%
    04:00 -1°C° 0 mm 4 m/s 745 mmHg 68%
    05:00 -2°C° 0 mm 4 m/s 745 mmHg 65%
    06:00 -1°C° 0 mm 5 m/s 746 mmHg 59%
    07:00 +1°C° 0 mm 5 m/s 747 mmHg 53%
    08:00 +2°C° 0 mm 5 m/s 747 mmHg 47%
    09:00 +3°C° 0 mm 5 m/s 747 mmHg 45%
    10:00 +5°C° 0 mm 5 m/s 748 mmHg 43%
    11:00 +5°C° 0 mm 4 m/s 748 mmHg 41%
    12:00 +6°C° 0 mm 4 m/s 748 mmHg 40%
    13:00 +6°C° 0 mm 4 m/s 748 mmHg 39%
    14:00 +7°C° 0 mm 4 m/s 748 mmHg 38%
    15:00 +6°C° 0 mm 4 m/s 748 mmHg 38%
    16:00 +6°C° 0 mm 4 m/s 748 mmHg 37%
    17:00 +6°C° 0 mm 4 m/s 748 mmHg 36%
    18:00 +4°C° 0 mm 3 m/s 749 mmHg 41%
    19:00 +4°C° 0 mm 2 m/s 749 mmHg 46%
    20:00 +2°C° 0 mm 2 m/s 750 mmHg 51%
    21:00 +1°C° 0 mm 2 m/s 750 mmHg 54%
    22:00 +1°C° 0 mm 2 m/s 750 mmHg 57%
    23:00 -1°C° 0 mm 2 m/s 751 mmHg 60%

    29 Aprilie, Luni

    Timp Temperatura Precipitaţii Vânt Presiune Umiditate
    00:00 -2°C° 0 mm 2 m/s 751 mmHg 61%
    01:00 -2°C° 0 mm 2 m/s 751 mmHg 63%
    02:00 -1°C° 0 mm 1 m/s 751 mmHg 64%
    03:00 0°C° 0 mm 1 m/s 752 mmHg 62%
    04:00 0°C° 0 mm 1 m/s 752 mmHg 60%
    05:00 0°C° 0 mm 1 m/s 752 mmHg 57%
    06:00 +2°C° 0 mm 1 m/s 752 mmHg 50%
    07:00 +4°C° 0 mm 1 m/s 752 mmHg 42%
    08:00 +5°C° 0 mm 1 m/s 752 mmHg 34%
    09:00 +7°C° 0 mm 1 m/s 752 mmHg 32%
    10:00 +8°C° 0 mm 1 m/s 752 mmHg 30%
    11:00 +9°C° 0 mm 1 m/s 751 mmHg 27%
    12:00 +10°C° 0 mm 1 m/s 751 mmHg 27%
    13:00 +10°C° 0 mm 1 m/s 751 mmHg 26%
    14:00 +11°C° 0 mm 1 m/s 750 mmHg 26%
    15:00 +10°C° 0 mm 1 m/s 750 mmHg 26%
    16:00 +10°C° 0 mm 1 m/s 749 mmHg 27%
    17:00 +9°C° 0 mm 1 m/s 749 mmHg 27%
    18:00 +8°C° 0 mm 1 m/s 749 mmHg 33%
    19:00 +6°C° 0 mm 1 m/s 749 mmHg 38%
    20:00 +4°C° 0 mm 1 m/s 749 mmHg 44%
    21:00 +3°C° 0 mm 1 m/s 748 mmHg 47%
    22:00 +3°C° 0 mm 1 m/s 748 mmHg 50%
    23:00 +1°C° 0 mm 2 m/s 748 mmHg 53%

    30 Aprilie, Marţi

    Timp Temperatura Precipitaţii Vânt Presiune Umiditate
    00:00 +1°C° 0 mm 2 m/s 748 mmHg 56%
    01:00 +1°C° 0 mm 1 m/s 748 mmHg 58%
    02:00 +1°C° 0 mm 1 m/s 748 mmHg 60%
    03:00 +1°C° 0 mm 1 m/s 748 mmHg 60%
    04:00 +1°C° 0 mm 1 m/s 748 mmHg 60%
    05:00 +1°C° 0 mm 1 m/s 747 mmHg 60%
    06:00 +4°C° 0 mm 1 m/s 747 mmHg 53%
    07:00 +6°C° 0 mm 1 m/s 747 mmHg 46%
    08:00 +8°C° 0 mm 1 m/s 747 mmHg 39%
    09:00 +9°C° 0 mm 1 m/s 746 mmHg 36%
    10:00 +9°C° 0 mm 2 m/s 746 mmHg 33%
    11:00 +10°C° 0 mm 2 m/s 746 mmHg 30%
    12:00 +12°C° 0 mm 2 m/s 745 mmHg 29%
    13:00 +12°C° 0 mm 2 m/s 745 mmHg 28%
    14:00 +12°C° 0 mm 2 m/s 745 mmHg 26%
    15:00 +12°C° 0 mm 2 m/s 744 mmHg 28%
    16:00 +12°C° 0 mm 2 m/s 744 mmHg 29%
    17:00 +10°C° 0 mm 2 m/s 744 mmHg 31%
    18:00 +9°C° 0 mm 2 m/s 744 mmHg 39%
    19:00 +7°C° 0 mm 2 m/s 744 mmHg 47%
    20:00 +6°C° 0 mm 1 m/s 744 mmHg 56%
    21:00 +5°C° 0 mm 1 m/s 744 mmHg 63%
    22:00 +5°C° 0 mm 1 m/s 744 mmHg 70%
    23:00 +4°C° 0 mm 1 m/s 744 mmHg 77%

    1 Mai, Miercuri

    Timp Temperatura Precipitaţii Vânt Presiune Umiditate
    00:00 +3°C° 0 mm 1 m/s 744 mmHg 80%
    01:00 +3°C° 0 mm 1 m/s 743 mmHg 83%
    02:00 +2°C° 0 mm 1 m/s 743 mmHg 85%
    03:00 +3°C° 0 mm 1 m/s 743 mmHg 85%
    04:00 +3°C° 0 mm 1 m/s 743 mmHg 84%
    05:00 +2°C° 0 mm 0 m/s 743 mmHg 83%
    06:00 +4°C° 0 mm 0 m/s 743 mmHg 73%
    07:00 +6°C° 0 mm 0 m/s 743 mmHg 63%
    08:00 +9°C° 0 mm 0 m/s 743 mmHg 54%
    09:00 +11°C° 0 mm 1 m/s 742 mmHg 48%
    10:00 +12°C° 0 mm 1 m/s 742 mmHg 43%
    11:00 +12°C° 0 mm 2 m/s 742 mmHg 37%
    12:00 +13°C° 0 mm 2 m/s 741 mmHg 36%
    13:00 +14°C° 0 mm 2 m/s 740 mmHg 34%
    14:00 +14°C° 0 mm 2 m/s 740 mmHg 32%
    15:00 +14°C° 0 mm 2 m/s 739 mmHg 33%
    16:00 +14°C° 0 mm 2 m/s 739 mmHg 34%
    17:00 +13°C° 0 mm 2 m/s 738 mmHg 34%
    18:00 +12°C° 0 mm 2 m/s 738 mmHg 40%
    19:00 +9°C° 0 mm 2 m/s 738 mmHg 45%
    20:00 +7°C° 0 mm 2 m/s 738 mmHg 51%
    21:00 +6°C° 0 mm 2 m/s 737 mmHg 53%
    22:00 +6°C° 0 mm 2 m/s 737 mmHg 54%
    23:00 +4°C° 0 mm 3 m/s 737 mmHg 56%
    Arată mai mult